TimeWET,TemperatureF,Dew PointF,Humidity,Sea Level PressureIn,VisibilityMPH,Wind Direction,Wind SpeedMPH,Gust SpeedMPH,PrecipitationIn,Events,Conditions,WindDirDegrees,DateUTC
6:00 AM,61,46,46,,9,SSW,2.3,,,,Scattered Clouds,200,2012-10-14 06:00:00
6:00 AM,60.8,46.4,59,29.98,6.2,Variable,3.5,-,N/A,,Partly Cloudy,0,2012-10-14 06:00:00
7:00 AM,60.8,44.6,55,30.01,6.2,Variable,3.5,-,N/A,,Partly Cloudy,0,2012-10-14 07:00:00
8:00 AM,64.4,44.6,49,30.01,6.2,Variable,3.5,-,N/A,,Scattered Clouds,0,2012-10-14 08:00:00
9:00 AM,71,45,27,,12,Calm,Calm,,,,Scattered Clouds,,2012-10-14 09:00:00
9:00 AM,71.6,44.6,38,30.01,6.2,Calm,Calm,-,N/A,,Scattered Clouds,0,2012-10-14 09:00:00
10:00 AM,75.2,44.6,34,30.01,6.2,Variable,3.5,-,N/A,,Scattered Clouds,0,2012-10-14 10:00:00
11:00 AM,75.2,42.8,31,30.01,6.2,Calm,Calm,-,N/A,,Scattered Clouds,0,2012-10-14 11:00:00
12:00 PM,77.0,42.8,29,29.98,6.2,SW,4.6,-,N/A,,Mostly Cloudy,220,2012-10-14 12:00:00
1:00 PM,77.0,42.8,29,29.95,6.2,SW,9.2,-,N/A,,Mostly Cloudy,220,2012-10-14 13:00:00
2:00 PM,80.6,41.0,24,29.92,6.2,Variable,2.3,-,N/A,,Mostly Cloudy,0,2012-10-14 14:00:00
3:00 PM,79,40,15,,12,WSW,9.2,,,,Partly Cloudy,240,2012-10-14 15:00:00
3:00 PM,78.8,41.0,26,29.89,6.2,West,9.2,-,N/A,,Mostly Cloudy,280,2012-10-14 15:00:00
4:00 PM,78.8,41.0,26,29.89,6.2,West,9.2,-,N/A,,Mostly Cloudy,280,2012-10-14 16:00:00
4:34 PM,78.8,41.0,26,29.89,6.2,NW,13.8,35.7,N/A,,Scattered Clouds,320,2012-10-14 16:34:00
5:00 PM,71.6,46.4,41,29.89,6.2,NNE,24.2,-,N/A,,Mostly Cloudy,20,2012-10-14 17:00:00
6:00 PM,72,45,27,,12,NNE,20.7,,,,Partly Cloudy,20,2012-10-14 18:00:00
6:00 PM,71.6,44.6,38,29.89,6.2,NNE,20.7,-,N/A,,Mostly Cloudy,20,2012-10-14 18:00:00
9:00 PM,70,45,30,,9,WNW,13.8,,,,Partly Cloudy,300,2012-10-14 21:00:00
9:00 PM,69.8,44.6,40,29.95,6.2,WNW,13.8,-,N/A,,Scattered Clouds,300,2012-10-14 21:00:00